Regional Weather Roundup
Issued by NWS

Home | Current Version | Previous Version | Graphics & Text | Print | Product List | Glossary On
Versions: 1 2 3 4 5 6 7 8 9 10 11 12 13 14 15 16 17 18 19 20 21 22 23 24 25 26 27 28 29 30 31 32 33 34 35 36 37 38 39 40 41 42 43 44 45 46 47 48 49 50
000
ASUS43 KDMX 291201
RWRIA

WEATHER ROUNDUP FOR IOWA
NATIONAL WEATHER SERVICE DES MOINES IA
700 AM CDT WED MAR 29 2017

NOTE: "FAIR" INDICATES FEW OR NO CLOUDS BELOW 12,000 FEET WITH NO
SIGNIFICANT WEATHER AND/OR OBSTRUCTIONS TO VISIBILITY.

* - THESE STATIONS ARE NOT NWS STATIONS...THUS NOT UNDER NWS
QUALITY CONTROL.  THEY ALSO DO NOT REPORT WEATHER SUCH
AS PRECIPITATION OR FOG.

IAZ001>003-012>014-020>022-031>034-043>046-291300-
   NORTHWEST IOWA

CITY           SKY/WX    TMP DP  RH WIND       PRES   REMARKS
CARROLL *      CLOUDY    43  43 100 E15G22    30.09R
CHEROKEE *     LGT RAIN  44  43  99 NE10      30.11F
DENISON *      LGT RAIN  43  43 100 E13G22    30.07F
LE MARS *      CLOUDY    45  43  93 NE7       30.12S
ORANGE CITY *  DRIZZLE   43  43 100 E6        30.12S
SHELDON *      CLOUDY    41  39  93 NE6       30.12S
SIOUX CITY     LGT RAIN  45  44  97 NE9       30.08F
6HR MIN TEMP:  45; 6HR MAX TEMP:  48; 6HR PCP:  0.04;

SPENCER        CLOUDY    43  41  93 E8        30.14F
6HR MIN TEMP:  41; 6HR MAX TEMP:  43;

STORM LAKE *   CLOUDY    43  41  93 E16       30.09F FOG
$$

IAZ055>058-069>071-079>083-090>094-291300-
   SOUTHWEST IOWA

CITY           SKY/WX    TMP DP  RH WIND       PRES   REMARKS
ATLANTIC *     RAIN      45  45 100 NE15G22   30.02F
AUDUBON *      RAIN      43  39  87 E15       30.07S
CLARINDA *     CLOUDY    46  46 100 E16G23    29.98F FOG
COUNCIL BLFS * LGT RAIN  45  45 100 E16       30.00F
CRESTON *      LGT RAIN  45  45 100 E17       30.03F
HARLAN  *      LGT RAIN  45  45 100 E15G22    30.06F
LAMONI         RAIN      45  44  97 NE18      29.98F FOG
6HR MIN TEMP:  45; 6HR MAX TEMP:  49; 6HR PCP:  0.24;

RED OAK *      LGT RAIN  46  45  93 E15G25    29.99F
SHENANDOAH *   LGT RAIN  46  45  93 NE17G24   29.97F
$$

IAZ047>049-059>061-072>074-084-291300-
   CENTRAL IOWA

CITY           SKY/WX    TMP DP  RH WIND       PRES   REMARKS
AMES           CLOUDY    43  42  97 E5        30.14R
6HR MIN TEMP:  43; 6HR MAX TEMP:  45;

ANKENY *       CLOUDY    43  41  93 NE8       30.12S
BOONE *        CLOUDY    43  43 100 E9        30.12R
CHARITON *     LGT RAIN  43  41  93 E10       30.09S
DES MOINES     LGT RAIN  45  40  82 E9        30.10F
6HR MIN TEMP:  45; 6HR MAX TEMP:  49; 6HR PCP: TRACE;

GRINNELL*      CLOUDY    41  39  92 E12       30.15R
MARSHALLTOWN   CLOUDY    40  39  97 E14       30.14R WCI  32
6HR MIN TEMP:  40; 6HR MAX TEMP:  43;

NEWTON *       CLOUDY    43  39  87 E10       30.13R
PELLA *        CLOUDY    43  40  90 E8        30.14R
PERRY *        CLOUDY    44  41  90 E9        30.10S
$$

IAZ004>006-015-016-023>025-035-036-291300-
   NORTH CENTRAL IOWA

CITY           SKY/WX    TMP DP  RH WIND       PRES   REMARKS
ALGONA *       CLOUDY    45  41  87 SE6       30.16F
CLARION *      CLOUDY    41  41 100 NE7       30.15F
ESTHERVILLE    CLOUDY    38  38 100 E5        30.16R WCI  34
6HR MIN TEMP:  38; 6HR MAX TEMP:  41;

FORT DODGE *   CLOUDY    43  37  81 NE9       30.13F
MASON CITY     CLOUDY    42  36  79 E7        30.18R
6HR MIN TEMP:  38; 6HR MAX TEMP:  42;

FOREST CITY *  CLOUDY    41  37  87 E6        30.17S
WEBSTER CITY * CLOUDY    43  41  93 NE8       30.11F
IOWA FALLS *   CLOUDY    43  40  90 NE7       30.15F
$$

IAZ007>011-017>019-026>030-037>042-050>054-066-291300-
   NORTHEAST IOWA

CITY           SKY/WX    TMP DP  RH WIND       PRES   REMARKS
CEDAR RAPIDS   CLOUDY    39  39 100 E12       30.13F FOG     WCI  32
6HR MIN TEMP:  38; 6HR MAX TEMP:  40;

CHARLES CITY * CLOUDY    41  37  87 E14G20    30.19R
CLINTON *      CLOUDY    39  37  92 E16       30.19R FOG     WCI  30
DECORAH *      MOCLDY    41  37  87 E13       30.18S
DUBUQUE        MOCLDY    37  36  96 NE6       30.20R WCI  32
6HR MIN TEMP:  37; 6HR MAX TEMP:  41;

MONTICELLO *   CLOUDY    39  37  93 E7        30.18R WCI  34
OELWEIN *      CLOUDY    39  37  93 E12       30.17S WCI  32
WATERLOO       CLOUDY    39  36  89 E15       30.16R WCI  31
6HR MIN TEMP:  37; 6HR MAX TEMP:  41;

$$

IAZ064-065-067-068-078-291300-
   EAST CENTRAL IOWA

CITY           SKY/WX    TMP DP  RH WIND       PRES   REMARKS
DAVENPORT      CLOUDY    42  39  89 E16       30.17R
6HR MIN TEMP:  38; 6HR MAX TEMP:  43;

IOWA CITY      CLOUDY    42  40  92 E12       30.14F FOG
6HR MIN TEMP:  41; 6HR MAX TEMP:  44;

MUSCATINE *    CLOUDY    43  41  93 E13G20    30.12F
QUAD CITIES    CLOUDY    44  40  85 E15G24    30.16S
6HR MIN TEMP:  37; 6HR MAX TEMP:  44;

$$

IAZ062-063-075>077-085>089-095>099-291300-
   SOUTHEAST IOWA

CITY           SKY/WX    TMP DP  RH WIND       PRES   REMARKS
BURLINGTON     CLOUDY    42  41  96 E8        30.10S FOG
6HR MIN TEMP:  41; 6HR MAX TEMP:  45;

FAIRFIELD *    CLOUDY    41  39  93 E15       30.11R
FORT MADISON * CLOUDY    43  39  87 E14       30.09S FOG
KEOKUK *       CLOUDY    43  39  87 E10       30.07F
OSKALOOSA *    CLOUDY    41  39  93 E13       30.12R FOG
OTTUMWA        CLOUDY    42  40  92 E20       30.10S
6HR MIN TEMP:  42; 6HR MAX TEMP:  47;

WASHINGTON *   CLOUDY    41  41 100 E15       30.12R FOG
$$

ABBREVIATIONS USED IN REMARKS
   TC - TEMPERATURES IN CELSIUS
  WCI - WIND CHILL INDEX
   HX - HEAT INDEX
  VSB - VISIBILITY
$$





USA.gov is the U.S. government's official web portal to all federal, state and local government web resources and services.